DFCME EDNY-EDVK

Flight info

Callsign DFCME
Flight time N/A
Altitude 24000
Route ALAGO1E ALAGO Z1 ETAGO/N0273F220 Z1 NOTGA N624 NIKUT T726 TOSTU P605 ELNAT
Aircraft PC12/L-SDFGRWY/S

Departure

Time 2026-04-21 20:18
Airport Bodensee Airport Friedrichshafen (EDNY)

Arrival

Time N/A
Airport Kassel Airport (EDVK)
Time Latitude Longitude Altitude Speed Heading
2026-04-21 20:12 47.67350 9.52365 1369 ft 0 kts 202°
2026-04-21 20:17 47.67386 9.52362 1369 ft 11 kts
2026-04-21 20:17 47.67474 9.52296 1369 ft 16 kts 318°
2026-04-21 20:17 47.67498 9.52125 1369 ft 25 kts 237°
2026-04-21 20:18 47.67279 9.51559 1393 ft 92 kts 245°
2026-04-21 20:18 47.66895 9.50622 1577 ft 120 kts 234°
2026-04-21 20:18 47.66379 9.49447 1697 ft 155 kts 243°
2026-04-21 20:18 47.65867 9.48035 2213 ft 155 kts 242°
2026-04-21 20:19 47.65339 9.46624 2680 ft 159 kts 240°
2026-04-21 20:19 47.64792 9.45197 3128 ft 163 kts 239°
2026-04-21 20:19 47.64223 9.43728 3588 ft 166 kts 239°
2026-04-21 20:19 47.63654 9.42265 4090 ft 165 kts 239°
2026-04-21 20:20 47.63082 9.40798 4558 ft 166 kts 239°
2026-04-21 20:20 47.62628 9.39224 4997 ft 167 kts 267°
2026-04-21 20:20 47.62906 9.37650 5463 ft 158 kts 312°
2026-04-21 20:20 47.63756 9.36731 5887 ft 150 kts 343°
2026-04-21 20:21 47.64734 9.36249 6319 ft 149 kts 351°
2026-04-21 20:21 47.65735 9.35864 6744 ft 150 kts 351°
2026-04-21 20:21 47.66736 9.35477 7159 ft 151 kts 353°
2026-04-21 20:21 47.67753 9.35539 7572 ft 146 kts 21°
2026-04-21 20:22 47.68592 9.36302 7980 ft 143 kts 47°
2026-04-21 20:22 47.69812 9.38671 8721 ft 147 kts 54°
2026-04-21 20:22 47.70406 9.39929 9083 ft 150 kts 54°
2026-04-21 20:23 47.70999 9.41184 9449 ft 151 kts 53°
2026-04-21 20:23 47.71608 9.42462 9816 ft 152 kts 53°
2026-04-21 20:23 47.72226 9.43750 10169 ft 154 kts 53°
2026-04-21 20:23 47.72851 9.45050 10510 ft 156 kts 52°
2026-04-21 20:24 47.73479 9.46355 10845 ft 157 kts 52°
2026-04-21 20:24 47.74128 9.47641 11183 ft 157 kts 44°
2026-04-21 20:24 47.75044 9.48502 11520 ft 156 kts 16°
2026-04-21 20:24 47.76112 9.48621 11841 ft 157 kts 349°
2026-04-21 20:25 47.77155 9.48112 12174 ft 158 kts 339°
2026-04-21 20:25 47.78169 9.47483 12481 ft 160 kts 337°
2026-04-21 20:25 47.79175 9.46827 12821 ft 159 kts 337°
2026-04-21 20:25 47.80238 9.46351 13123 ft 159 kts 353°
2026-04-21 20:26 47.81334 9.46244 13445 ft 159 kts 358°
2026-04-21 20:26 47.82448 9.46229 13752 ft 160 kts 359°
2026-04-21 20:26 47.83543 9.46238 14044 ft 159 kts 359°
2026-04-21 20:26 47.84665 9.46250 14322 ft 160 kts 359°
2026-04-21 20:27 47.85759 9.46256 14619 ft 160 kts 358°
2026-04-21 20:27 47.86882 9.46258 14873 ft 162 kts 359°
2026-04-21 20:27 47.88009 9.46258 15145 ft 162 kts 358°
2026-04-21 20:27 47.89134 9.46257 15412 ft 163 kts 359°
2026-04-21 20:28 47.90285 9.46254 15673 ft 165 kts 359°
2026-04-21 20:28 47.91430 9.46252 15951 ft 165 kts 358°
2026-04-21 20:28 47.92577 9.46249 16194 ft 166 kts 359°
2026-04-21 20:28 47.93733 9.46246 16435 ft 166 kts 359°
2026-04-21 20:29 47.94894 9.46244 16664 ft 168 kts 358°
2026-04-21 20:29 47.96057 9.46241 16900 ft 168 kts 358°
2026-04-21 20:29 47.97219 9.46239 17156 ft 168 kts 358°
2026-04-21 20:29 47.98378 9.46236 17406 ft 168 kts 358°
2026-04-21 20:30 47.99548 9.46234 17634 ft 168 kts 358°
2026-04-21 20:30 48.00722 9.46231 17845 ft 170 kts 358°
2026-04-21 20:30 48.01910 9.46228 18074 ft 170 kts 358°
2026-04-21 20:30 48.03076 9.46225 18304 ft 169 kts 358°
2026-04-21 20:31 48.04258 9.46223 18514 ft 170 kts 358°
2026-04-21 20:31 48.05448 9.46220 18712 ft 171 kts 358°
2026-04-21 20:31 48.06629 9.46217 18894 ft 172 kts 358°
2026-04-21 20:31 48.07825 9.46215 19106 ft 172 kts 358°
2026-04-21 20:32 48.09027 9.46212 19303 ft 172 kts 358°
2026-04-21 20:32 48.10222 9.46209 19500 ft 172 kts 358°
2026-04-21 20:32 48.11424 9.46206 19694 ft 173 kts 358°
2026-04-21 20:32 48.12623 9.46204 19889 ft 173 kts 357°
2026-04-21 20:33 48.13827 9.46201 20099 ft 172 kts 357°
2026-04-21 20:33 48.15039 9.46199 20289 ft 173 kts 357°
2026-04-21 20:33 48.16229 9.46196 20485 ft 173 kts 357°
2026-04-21 20:33 48.17441 9.46194 20671 ft 173 kts 358°
2026-04-21 20:34 48.18650 9.46193 20846 ft 173 kts 358°
2026-04-21 20:34 48.19854 9.46194 21021 ft 173 kts 357°
2026-04-21 20:34 48.21073 9.46194 21120 ft 178 kts 358°
2026-04-21 20:34 48.22343 9.46194 21121 ft 186 kts 357°
2026-04-21 20:35 48.23674 9.46193 21122 ft 193 kts 357°
2026-04-21 20:35 48.25048 9.46193 21125 ft 199 kts 358°
2026-04-21 20:35 48.26460 9.46193 21124 ft 204 kts 358°
2026-04-21 20:35 48.27893 9.46195 21124 ft 208 kts 358°
2026-04-21 20:36 48.28883 9.46196 21124 ft 210 kts 358°
2026-04-21 20:36 48.29379 9.46197 21124 ft 211 kts 358°
2026-04-21 20:36 48.30849 9.46199 21124 ft 213 kts 358°
2026-04-21 20:37 48.32340 9.46201 21163 ft 214 kts 359°
2026-04-21 20:37 48.33834 9.46201 21126 ft 208 kts 359°
2026-04-21 20:37 48.35218 9.46212 21114 ft 185 kts 359°
2026-04-21 20:37 48.36432 9.46212 21108 ft 165 kts 355°
2026-04-21 20:38 48.37480 9.45580 20430 ft 187 kts 310°
2026-04-21 20:38 48.38438 9.44336 20050 ft 179 kts 340°
2026-04-21 20:38 48.39624 9.43945 19921 ft 166 kts 347°
2026-04-21 20:38 48.40585 9.43013 19285 ft 187 kts 312°
2026-04-21 20:39 48.41785 9.42304 18399 ft 201 kts
2026-04-21 20:39 48.43129 9.42935 17710 ft 207 kts 20°
2026-04-21 20:39 48.44324 9.43552 17960 ft 171 kts 29°
2026-04-21 20:39 48.45436 9.44454 17111 ft 185 kts 27°
2026-04-21 20:40 48.45676 9.44645 17132 ft 186 kts 26°
2026-04-21 20:40 48.46796 9.45495 16425 ft 193 kts 27°
2026-04-21 20:40 48.47956 9.46410 16090 ft 176 kts 27°
2026-04-21 20:40 48.48970 9.47205 15809 ft 162 kts 28°
2026-04-21 20:41 48.49075 9.47292 15727 ft 164 kts 28°
2026-04-21 20:41 48.49493 9.47653 15338 ft 174 kts 31°
2026-04-21 20:42 48.49655 9.47804 15180 ft 178 kts 32°
2026-04-21 20:42 48.50642 9.48946 14516 ft 180 kts 43°
2026-04-21 20:42 48.51389 9.50365 14214 ft 166 kts 58°
2026-04-21 20:42 48.51769 9.52003 13492 ft 180 kts 79°
2026-04-21 20:43 48.51638 9.53932 12807 ft 187 kts 107°
2026-04-21 20:43 48.51268 9.55620 12760 ft 156 kts 103°
2026-04-21 20:43 48.50966 9.57176 12142 ft 165 kts 103°
2026-04-21 20:43 48.50634 9.58896 11076 ft 178 kts 104°
2026-04-21 20:44 48.50241 9.60541 10551 ft 160 kts 110°
2026-04-21 20:44 48.49749 9.62000 9787 ft 164 kts 117°
2026-04-21 20:44 48.49087 9.63394 8966 ft 164 kts 126°
2026-04-21 20:44 48.48138 9.64061 8258 ft 183 kts 221°
2026-04-21 20:45 48.48272 9.62639 8010 ft 155 kts 320°
2026-04-21 20:45 48.48926 9.61531 7701 ft 124 kts 311°
2026-04-21 20:45 48.49664 9.60986 6531 ft 125 kts
2026-04-21 20:45 48.50459 9.61035 5441 ft 160 kts 330°
2026-04-21 20:46 48.50650 9.59518 4664 ft 159 kts 232°
2026-04-21 20:46 48.49838 9.59224 4273 ft 107 kts 144°
2026-04-21 20:46 48.49532 9.60068 3674 ft 94 kts 96°
2026-04-21 20:46 48.49436 9.61075 3147 ft 99 kts 93°
2026-04-21 20:47 48.49368 9.62127 2827 ft 103 kts 89°
2026-04-21 20:47 48.49472 9.63087 2535 ft 84 kts 72°
2026-04-21 20:47 48.49627 9.63780 2467 ft 57 kts 70°
2026-04-21 20:47 48.49736 9.64237 2452 ft 32 kts 63°
2026-04-21 20:48 48.49770 9.64359 2450 ft 0 kts 68°